When you browse on this site, cookies collect data to enhance your experience and personalize the content and advertising you see.
Visit our Privacy Policy to learn more. By continuing to use the site, you agree to this use of cookies and data.
  • In Sweden
  • List of Countries
  • For 7 days
  • Water Temperature
  • Weather Map
  • Weather Widgets
  • user-avatar
    Login

    Hourly Weather Francistown

    Today, 4 April, Saturday

    Time Temperature Precipitation Wind Pressure Humidity
    00:00 +19°C° 0 mm 5 mps 679 mmHg 73%
    01:00 +18°C° 0 mm 4 mps 678 mmHg 77%
    02:00 +18°C° 0 mm 4 mps 678 mmHg 77%
    03:00 +17°C° 0 mm 4 mps 678 mmHg 81%
    04:00 +17°C° 0 mm 4 mps 678 mmHg 85%
    05:00 +15°C° 0 mm 4 mps 678 mmHg 88%
    06:00 +17°C° 0 mm 4 mps 678 mmHg 85%
    07:00 +18°C° 0 mm 4 mps 679 mmHg 81%
    08:00 +19°C° 0 mm 4 mps 679 mmHg 76%
    09:00 +21°C° 0 mm 4 mps 679 mmHg 66%
    10:00 +24°C° 0 mm 3 mps 679 mmHg 57%
    11:00 +26°C° 0 mm 3 mps 680 mmHg 48%
    12:00 +27°C° 0 mm 2 mps 679 mmHg 44%
    13:00 +29°C° 0 mm 1 mps 678 mmHg 39%
    14:00 +28°C° 0 mm 0 mps 678 mmHg 35%
    15:00 +29°C° 0 mm 1 mps 678 mmHg 36%
    16:00 +29°C° 0 mm 1 mps 677 mmHg 37%
    17:00 +28°C° 0 mm 2 mps 677 mmHg 38%
    18:00 +27°C° 0 mm 2 mps 677 mmHg 42%
    19:00 +26°C° 0 mm 2 mps 677 mmHg 45%
    20:00 +25°C° 0 mm 2 mps 677 mmHg 49%
    21:00 +24°C° 0 mm 2 mps 677 mmHg 53%
    22:00 +22°C° 0 mm 3 mps 677 mmHg 58%
    23:00 +21°C° 0 mm 3 mps 677 mmHg 62%

    Tomorrow, 5 April, Sunday

    Time Temperature Precipitation Wind Pressure Humidity
    00:00 +20°C° 0 mm 3 mps 677 mmHg 66%
    01:00 +19°C° 0 mm 2 mps 677 mmHg 69%
    02:00 +19°C° 0 mm 2 mps 676 mmHg 73%
    03:00 +18°C° 0 mm 2 mps 676 mmHg 74%
    04:00 +19°C° 0 mm 1 mps 676 mmHg 75%
    05:00 +19°C° 0 mm 1 mps 676 mmHg 76%
    06:00 +20°C° 0 mm 1 mps 677 mmHg 70%
    07:00 +21°C° 0 mm 2 mps 678 mmHg 65%
    08:00 +23°C° 0 mm 2 mps 678 mmHg 59%
    09:00 +25°C° 0 mm 1 mps 678 mmHg 50%
    10:00 +28°C° 0 mm 1 mps 679 mmHg 41%
    11:00 +30°C° 0 mm 1 mps 679 mmHg 32%
    12:00 +30°C° 0 mm 1 mps 678 mmHg 30%
    13:00 +31°C° 0 mm 2 mps 678 mmHg 28%
    14:00 +31°C° 0 mm 2 mps 677 mmHg 26%
    15:00 +31°C° 0 mm 3 mps 677 mmHg 27%
    16:00 +31°C° 0 mm 3 mps 677 mmHg 27%
    17:00 +30°C° 0 mm 3 mps 676 mmHg 28%
    18:00 +29°C° 0 mm 2 mps 676 mmHg 31%
    19:00 +28°C° 0 mm 2 mps 676 mmHg 34%
    20:00 +26°C° 0 mm 1 mps 676 mmHg 37%
    21:00 +25°C° 0 mm 1 mps 676 mmHg 39%
    22:00 +24°C° 0 mm 1 mps 676 mmHg 41%
    23:00 +21°C° 0 mm 0 mps 676 mmHg 44%

    Day after tomorrow, 6 April, Monday

    Time Temperature Precipitation Wind Pressure Humidity
    00:00 +23°C° 0 mm 1 mps 676 mmHg 45%
    01:00 +22°C° 0 mm 1 mps 676 mmHg 46%
    02:00 +22°C° 0 mm 1 mps 675 mmHg 47%
    03:00 +22°C° 0 mm 1 mps 675 mmHg 48%
    04:00 +21°C° 0 mm 1 mps 675 mmHg 48%
    05:00 +21°C° 0 mm 1 mps 675 mmHg 49%
    06:00 +21°C° 0 mm 2 mps 676 mmHg 46%
    07:00 +24°C° 0 mm 2 mps 676 mmHg 44%
    08:00 +25°C° 0 mm 2 mps 677 mmHg 41%
    09:00 +27°C° 0 mm 3 mps 677 mmHg 36%
    10:00 +29°C° 0 mm 3 mps 677 mmHg 31%
    11:00 +33°C° 0 mm 3 mps 678 mmHg 26%
    12:00 +34°C° 0 mm 3 mps 677 mmHg 24%
    13:00 +34°C° 0 mm 4 mps 676 mmHg 22%
    14:00 +35°C° 0 mm 4 mps 676 mmHg 21%
    15:00 +35°C° 0 mm 4 mps 675 mmHg 22%
    16:00 +34°C° 0 mm 4 mps 675 mmHg 23%
    17:00 +33°C° 0 mm 4 mps 674 mmHg 24%
    18:00 +32°C° 0 mm 4 mps 674 mmHg 27%
    19:00 +29°C° 0 mm 4 mps 674 mmHg 31%
    20:00 +27°C° 0 mm 4 mps 674 mmHg 34%
    21:00 +26°C° 0 mm 4 mps 674 mmHg 35%
    22:00 +26°C° 0 mm 4 mps 675 mmHg 36%
    23:00 +25°C° 0 mm 3 mps 675 mmHg 37%

    7 April, Tuesday

    Time Temperature Precipitation Wind Pressure Humidity
    00:00 +24°C° 0 mm 3 mps 675 mmHg 39%
    01:00 +24°C° 0 mm 3 mps 674 mmHg 40%
    02:00 +22°C° 0 mm 3 mps 674 mmHg 41%
    03:00 +22°C° 0 mm 3 mps 674 mmHg 44%
    04:00 +21°C° 0 mm 3 mps 674 mmHg 47%
    05:00 +20°C° 0 mm 3 mps 674 mmHg 49%
    06:00 +22°C° 0 mm 4 mps 675 mmHg 47%
    07:00 +23°C° 0 mm 4 mps 675 mmHg 45%
    08:00 +25°C° 0 mm 4 mps 676 mmHg 43%
    09:00 +28°C° 0 mm 4 mps 677 mmHg 37%
    10:00 +30°C° 0 mm 3 mps 677 mmHg 31%
    11:00 +34°C° 0 mm 3 mps 678 mmHg 25%
    12:00 +35°C° 0 mm 2 mps 677 mmHg 22%
    13:00 +36°C° 0 mm 2 mps 676 mmHg 19%
    14:00 +36°C° 0 mm 1 mps 676 mmHg 16%
    15:00 +35°C° 0 mm 1 mps 675 mmHg 17%
    16:00 +35°C° 0 mm 1 mps 675 mmHg 18%
    17:00 +34°C° 0 mm 1 mps 675 mmHg 19%
    18:00 +32°C° 0 mm 1 mps 675 mmHg 21%
    19:00 +30°C° 0 mm 1 mps 675 mmHg 23%
    20:00 +29°C° 0 mm 1 mps 675 mmHg 26%
    21:00 +28°C° 0 mm 2 mps 675 mmHg 28%
    22:00 +27°C° 0 mm 2 mps 675 mmHg 31%
    23:00 +26°C° 0 mm 3 mps 675 mmHg 34%

    8 April, Wednesday

    Time Temperature Precipitation Wind Pressure Humidity
    00:00 +26°C° 0 mm 3 mps 676 mmHg 35%
    01:00 +25°C° 0 mm 3 mps 676 mmHg 37%
    02:00 +25°C° 0 mm 4 mps 676 mmHg 39%
    03:00 +22°C° 0 mm 5 mps 676 mmHg 53%
    04:00 +21°C° 0 mm 6 mps 677 mmHg 68%
    05:00 +20°C° 0 mm 7 mps 677 mmHg 82%
    06:00 +21°C° 0 mm 7 mps 677 mmHg 79%
    07:00 +21°C° 0 mm 7 mps 678 mmHg 75%
    08:00 +22°C° 0 mm 7 mps 679 mmHg 71%
    09:00 +23°C° 0 mm 7 mps 679 mmHg 67%
    10:00 +24°C° 0 mm 8 mps 680 mmHg 63%
    11:00 +26°C° 0 mm 8 mps 680 mmHg 59%
    12:00 +27°C° 0 mm 8 mps 680 mmHg 56%
    13:00 +28°C° 0 mm 9 mps 679 mmHg 54%
    14:00 +28°C° 0 mm 9 mps 679 mmHg 51%
    15:00 +27°C° 0.1 mm 9 mps 679 mmHg 54%
    16:00 +26°C° 0.1 mm 8 mps 679 mmHg 56%
    17:00 +24°C° 0.1 mm 8 mps 678 mmHg 58%
    18:00 +23°C° 0 mm 7 mps 679 mmHg 65%
    19:00 +21°C° 0 mm 7 mps 679 mmHg 71%
    20:00 +20°C° 0 mm 7 mps 679 mmHg 78%
    21:00 +20°C° 0 mm 8 mps 680 mmHg 77%
    22:00 +20°C° 0 mm 8 mps 680 mmHg 77%
    23:00 +20°C° 0 mm 8 mps 680 mmHg 76%

    9 April, Thursday

    Time Temperature Precipitation Wind Pressure Humidity
    00:00 +18°C° 0 mm 8 mps 681 mmHg 77%
    01:00 +18°C° 0 mm 8 mps 681 mmHg 77%
    02:00 +18°C° 0 mm 8 mps 681 mmHg 77%
    03:00 +18°C° 0 mm 8 mps 681 mmHg 77%
    04:00 +18°C° 0 mm 8 mps 681 mmHg 78%
    05:00 +18°C° 0 mm 7 mps 681 mmHg 78%
    06:00 +17°C° 0 mm 8 mps 681 mmHg 78%
    07:00 +17°C° 0 mm 8 mps 681 mmHg 79%
    08:00 +17°C° 0 mm 8 mps 682 mmHg 79%
    09:00 +18°C° 0 mm 8 mps 682 mmHg 76%
    10:00 +20°C° 0 mm 7 mps 682 mmHg 72%
    11:00 +20°C° 0 mm 7 mps 682 mmHg 69%
    12:00 +22°C° 0 mm 7 mps 682 mmHg 59%
    13:00 +26°C° 0 mm 7 mps 681 mmHg 50%
    14:00 +28°C° 0 mm 7 mps 681 mmHg 41%
    15:00 +27°C° 0 mm 7 mps 681 mmHg 43%
    16:00 +27°C° 0 mm 7 mps 681 mmHg 45%
    17:00 +26°C° 0 mm 7 mps 680 mmHg 47%
    18:00 +23°C° 0 mm 7 mps 680 mmHg 54%
    19:00 +22°C° 0 mm 6 mps 680 mmHg 60%
    20:00 +20°C° 0 mm 6 mps 680 mmHg 67%
    21:00 +20°C° 0 mm 5 mps 680 mmHg 69%
    22:00 +19°C° 0 mm 5 mps 680 mmHg 71%
    23:00 +19°C° 0 mm 4 mps 680 mmHg 74%
    Show more